Location: Oregon Trail
(41.1872°N, 102.0741°W)
Time: 10:35:56
(UTC+00:00)

Cosmos 2016 Rocket - Pass Details

Date: 19 November 2019
Orbit: 947 x 1000 km, 83.0° (Epoch: 12 December)

Event Time Altitude Azimuth Distance (km) Brightness Sun altitude
Rises 12:06:29 0° 192° (SSW) 3,652 7.0 -17.7°
Reaches altitude 10° 12:08:58 10° 195° (SSW) 2,717 6.3 -17.2°
Maximum altitude 12:15:11 70° 279° (W) 1,047 3.9 -16.0°
Drops below altitude 10° 12:21:32 10° 3° (N) 2,767 6.3 -14.9°
Sets 12:24:06 0° 6° (N) 3,725 7.0 -14.4°
